Location: *
(50.2903°S, 172.5375°W)
Time: 12:11:29
(UTC+00:00)

Resurs 1-4 Rocket - Pass Details

Date: 24 February 2020
Orbit: 800 x 814 km, 98.6° (Epoch: 05 April)

Event Time Altitude Azimuth Distance (km) Brightness Sun altitude
Exits shadow 09:57:42 10° 110° (ESE) 2,442 4.5 -25.9°
Reaches altitude 10° 09:57:53 10° 112° (ESE) 2,416 4.5 -25.9°
Maximum altitude 09:59:42 12° 132° (SE) 2,295 4.6 -26.0°
Drops below altitude 10° 10:01:30 10° 152° (SSE) 2,421 5.0 -26.1°
Sets 10:05:31 0° 182° (S) 3,358 6.3 -26.4°
